Location: Newark
(25.4800°N, 85.7200°E)
Time: 05:12:16
(UTC+00:00)

Explorer 11/Cluster Stage 4 - Pass Details

Date: 23 August 2019
Orbit: 467 x 1260 km, 28.8° (Epoch: 17 September)

Event Time Altitude Azimuth Distance (km) Brightness Sun altitude
Rises 04:25:23 0° 250° (WSW) 4,028 10.0 59.6°
Reaches altitude 10° 04:28:08 10° 249° (WSW) 3,132 9.5 60.2°
Maximum altitude 04:36:13 83° 163° (SSE) 1,266 9.1 61.8°
Drops below altitude 10° 04:44:25 10° 76° (ENE) 3,173 10.1 63.5°
Sets 04:47:13 0° 76° (ENE) 4,082 10.5 64.0°
